VE1AIC-4 Weather Reports


Display with metric or nautical units.
time (UTC)temp
F
wind
direction
speed
MPH
gust
MPH
rain 1hr
in
rain 24hr
in
rain mn
in
humidity
%
barometer
mb
20260505002101 47 215 11.0 22.0 0.00 0.99 0.63 77 1001.7
20260505001032 47 243 10.0 21.0 0.00 1.02 0.63 76 1001.5
20260505000043 48 237 10.0 24.0 0.00 1.03 0.63 75 1001.4
20260504235024 48 237 10.0 17.0 0.00 1.06 0.63 73 1001.1
20260504234035 49 225 10.0 19.0 0.00 1.07 0.63 72 1000.8
20260504233045 49 220 9.0 19.0 0.00 1.08 0.63 72 1000.7
20260504232025 48 231 11.0 21.0 0.00 1.10 0.63 71 1000.6
20260504231037 49 226 10.0 19.0 0.00 1.13 0.63 69 1000.4
20260504230106 50 204 11.0 21.0 0.00 1.16 0.63 66 1000.2
20260504225100 50 232 11.0 29.0 0.00 1.19 0.63 63 1000.0
20260504224042 50 226 10.0 22.0 0.00 1.23 0.63 64 1000.0
20260504223121 50 221 12.0 21.0 0.00 1.25 0.63 63 1000.0
20260504222100 50 223 11.0 21.0 0.00 1.26 0.63 62 1000.0
20260504221041 51 246 10.0 26.0 0.00 1.27 0.63 59 999.8
20260504220021 52 244 14.0 29.0 0.00 1.29 0.63 57 999.8
20260504215031 51 238 14.0 26.0 0.00 1.31 0.63 58 999.8
20260504214042 51 198 16.0 29.0 0.00 1.33 0.63 55 999.7
20260504213124 52 225 13.0 29.0 0.00 1.35 0.63 53 999.5
20260504212105 53 234 15.0 31.0 0.00 1.36 0.63 53 999.6
20260504211117 53 205 11.0 26.0 0.00 1.40 0.63 57 999.5
20260504210025 54 258 13.0 24.0 0.00 1.43 0.63 56 999.1
20260504205055 54 234 10.0 21.0 0.00 1.45 0.63 56 999.3
20260504204118 56 225 11.0 26.0 0.00 1.47 0.63 53 999.2
20260504203233 55 209 11.0 26.0 0.00 1.50 0.63 54 999.0
20260504202038 54 201 11.0 19.0 0.00 1.52 0.63 55 999.1
20260504201122 55 218 13.0 32.0 0.00 1.55 0.63 53 999.1
20260504200131 56 237 10.0 22.0 0.00 1.57 0.63 52 998.8
20260504195039 57 233 8.0 19.0 0.00 1.60 0.63 52 998.8
20260504194050 57 237 9.0 22.0 0.00 1.62 0.63 51 998.7
20260504193030 57 232 11.0 21.0 0.00 1.63 0.63 50 998.6
20260504192113 56 219 12.0 27.0 0.00 1.63 0.63 52 998.6
20260504191124 55 218 10.0 19.0 0.00 1.65 0.63 55 998.5
20260504190124 56 190 9.0 19.0 0.00 1.66 0.63 53 998.5
20260504185115 56 209 11.0 24.0 0.00 1.66 0.63 52 998.2
20260504184023 57 252 8.0 27.0 0.00 1.67 0.63 50 998.3
20260504183035 56 201 9.0 15.0 0.00 1.68 0.63 51 998.2
20260504182147 56 220 8.0 19.0 0.00 1.68 0.63 52 998.3
20260504181045 56 254 11.0 27.0 0.00 1.68 0.63 54 998.3
20260504180036 56 180 10.0 24.0 0.00 1.69 0.63 56 998.4
20260504175017 55 237 9.0 17.0 0.00 1.69 0.63 57 998.2
20260504174027 55 266 11.0 24.0 0.00 1.69 0.63 59 998.3
20260504173112 54 244 11.0 29.0 0.00 1.70 0.63 60 998.3
20260504172019 55 253 12.0 27.0 0.00 1.70 0.63 59 998.1
20260504171030 55 221 9.0 26.0 0.00 1.70 0.63 55 998.1
20260504160105 53 220 7.0 14.0 0.00 1.76 0.63 65 997.4
20260504151128 51 248 10.0 29.0 0.00 1.79 0.63 70 997.0
20260504141041 46 249 9.0 15.0 0.00 1.79 0.63 80 996.4
20260504110226 40 290 7.0 15.0 0.04 1.77 0.61 96 992.4
20260504100143 38 272 6.0 10.0 0.05 1.73 0.57 96 991.1
20260504081102 35 300 11.0 15.0 0.12 1.58 0.42 97 987.6
20260504050138 37 345 17.0 34.0 0.06 1.31 0.15 96 982.3
20260504045038 37 344 19.0 45.0 0.07 1.30 0.14 96 982.1
20260504044200 37 346 18.0 41.0 0.07 1.29 0.13 96 981.8
20260504043119 36 331 17.0 32.0 0.07 1.28 0.12 96 981.9
20260504042146 36 331 16.0 22.0 0.08 1.27 0.11 96 981.7
20260504041212 36 334 13.0 22.0 0.09 1.26 0.10 96 981.7
20260504040034 36 340 24.0 45.0 0.09 1.25 0.09 96 981.4
20260504035114 36 320 19.0 32.0 0.08 1.23 0.07 97 981.5
20260504034022 36 338 24.0 43.0 0.09 1.22 0.06 96 981.5
20260504033225 36 338 20.0 38.0 0.10 1.21 0.05 96 981.6
20260504032216 36 339 21.0 36.0 0.09 1.19 0.03 96 981.8
20260504031024 36 334 26.0 46.0 0.09 1.17 0.01 97 981.8
20260504030036 36 5 25.0 39.0 0.10 1.16 0.00 97 981.9
20260504025046 36 356 20.0 39.0 0.11 1.15 1.15 96 982.1
20260504024102 36 344 23.0 46.0 0.11 1.13 1.13 97 982.3
20260504023036 36 339 23.0 45.0 0.10 1.11 1.11 97 982.6
20260504022016 36 328 22.0 39.0 0.12 1.10 1.10 96 983.0
20260504021029 36 336 22.0 39.0 0.14 1.08 1.08 96 983.3
20260504020038 35 342 25.0 38.0 0.15 1.06 1.06 96 983.6
20260504015121 36 350 21.0 41.0 0.16 1.04 1.04 96 983.9
20260504014030 36 351 28.0 46.0 0.16 1.02 1.02 96 984.2
20260504013040 37 336 26.0 39.0 0.18 1.01 1.01 96 984.3
20260504012051 37 340 21.0 39.0 0.18 0.98 0.98 96 984.5
20260504011215 37 354 23.0 34.0 0.17 0.94 0.94 96 984.4
20260504010043 38 22 22.0 34.0 0.15 0.91 0.91 96 984.5
20260504005053 37 336 26.0 41.0 0.15 0.88 0.88 96 984.6
20260504004034 37 13 24.0 43.0 0.14 0.86 0.86 96 985.0
20260504003031 38 70 23.0 41.0 0.12 0.83 0.83 96 985.3